This demonstration page uses our WeatherBlox Daily Observations layout. Learn more.

39.92423, -83.80882

Hourly Observations for May 15, 2017

Temp ( °F °C ) Dew Point ( °F °C ) Humidity (%) Winds ( mph kmh ) Pressure ( in mb ) Visibility ( mi km ) Precip ( " mm )
12:56 am 00:56 Clear 58 14.4 48 8.9 70 70 ENE 6 9 29.96 1014 10 16.0934 0 0
1:56 am 01:56 Mostly Clear 55 12.8 47 8.3 74 74 ENE 8 13 29.96 1015 10 16.0934 0 0
2:56 am 02:56 Clear 55 12.8 44 6.7 67 67 E 10 17 29.97 1015 10 16.0934 0 0
3:56 am 03:56 Clear 53 11.7 41 5 64 64 E 9 15 29.99 1016 10 16.0934 0 0
5:56 am 05:56 Clear 49 9.4 40 4.4 71 71 E 7 11 30.01 1016 10 16.0934 0 0
6:56 am 06:56 Sunny 49 9.4 41 5 74 74 E 6 9 30.03 1017 10 16.0934 0 0
7:56 am 07:56 Sunny 52 11.1 42 5.6 69 69 ESE 6 9 30.06 1018 10 16.0934 0 0
8:56 am 08:56 Sunny 58 14.4 38 3.3 48 48 ESE 12 19 30.08 1019 10 16.0934 0 0
9:56 am 09:56 Sunny 61 16.1 37 2.8 41 41 ESE 13 20 30.08 1019 10 16.0934 0 0
10:56 am 10:56 Sunny 64 17.8 37 2.8 37 37 SE 10 17 30.08 1019 10 16.0934 0 0
11:56 am 11:56 Sunny 66 18.9 38 3.3 36 36 ESE 8 13 30.07 1018 10 16.0934 0 0
12:56 pm 12:56 Hazy 70 21.1 41 5 35 35 SE 10 17 30.06 1018 3 4.82802 0 0
1:56 pm 13:56 Sunny 71 21.7 42 5.6 35 35 SSE 7 11 30.05 1018 10 16.0934 0 0
2:56 pm 14:56 Sunny 73 22.8 45 7.2 37 37 VRB 6 9 30.04 1017 10 16.0934 0 0
3:56 pm 15:56 Sunny 75 23.9 47 8.3 37 37 VRB 6 9 30.02 1017 10 16.0934 0 0
4:56 pm 16:56 Sunny 76 24.4 47 8.3 36 36 SSE 8 13 30 1016 10 16.0934 0 0
5:56 pm 17:56 Sunny 76 24.4 49 9.4 39 39 ESE 9 15 29.99 1016 10 16.0934 0 0
6:56 pm 18:56 Sunny 75 23.9 49 9.4 40 40 VRB 6 9 29.99 1016 10 16.0934 0 0
7:56 pm 19:56 Sunny 73 22.8 50 10 44 44 ESE 6 9 30.01 1016 10 16.0934 0 0
8:56 pm 20:56 Clear 66 18.9 50 10 56 56 E 7 11 30.01 1016 10 16.0934 0 0
9:56 pm 21:56 Clear 63 17.2 49 9.4 60 60 ESE 7 11 30.01 1016 10 16.0934 0 0
10:56 pm 22:56 Clear 63 17.2 48 8.9 58 58 ESE 10 17 30.01 1016 10 16.0934 0 0
11:56 pm 23:56 Clear 63 17.2 47 8.3 56 56 ESE 8 13 30.01 1016 10 16.0934 0 0

Powered by AerisWeather